DW9227 Weather Reports


Display with metric or nautical units.
time (UTC)temp
F
wind
direction
speed
MPH
gust
MPH
rain 1hr
in
rain 24hr
in
rain mn
in
humidity
%
barometer
mb
20260502191540 65 130 0.0 0.0 0.00 0.00 0.00 56 1021.4
20260502190038 66 130 0.0 0.0 0.00 0.00 0.00 53 1021.2
20260502184545 67 130 0.0 0.0 0.00 0.00 0.00 51 1021.1
20260502183043 67 130 0.0 0.0 0.00 0.00 0.00 49 1021.0
20260502181540 68 130 0.0 0.0 0.00 0.00 0.00 49 1020.8
20260502163026 71 98 0.0 8.0 0.00 0.00 0.00 46 1020.8
20260502161525 71 121 0.0 7.0 0.00 0.00 0.00 47 1020.9
20260502160124 71 146 1.0 12.0 0.00 0.00 0.00 46 1021.1
20260502151520 71 140 1.0 14.0 0.00 0.00 0.00 47 1021.2
20260502123057 71 76 1.0 12.0 0.00 0.00 0.00 49 1023.6
20260502121557 71 132 0.0 6.0 0.00 0.00 0.00 50 1023.7
20260502114551 70 136 1.0 10.0 0.00 0.00 0.00 50 1024.2
20260502113044 70 128 0.0 14.0 0.00 0.00 0.00 50 1024.5
20260502111544 69 132 2.0 11.0 0.00 0.00 0.00 51 1024.7
20260502110041 70 65 0.0 8.0 0.00 0.00 0.00 49 1024.9
20260502104539 69 78 1.0 7.0 0.00 0.00 0.00 49 1025.3
20260502103042 69 136 0.0 10.0 0.00 0.00 0.00 50 1025.5
20260502101543 68 124 0.0 5.0 0.00 0.00 0.00 49 1025.8
20260502091523 66 80 0.0 4.0 0.00 0.00 0.00 54 1026.6
20260502064547 54 88 0.0 0.0 0.00 0.00 0.00 70 1027.7
20260502063045 52 88 0.0 0.0 0.00 0.00 0.00 73 1027.7
20260502061545 51 88 0.0 0.0 0.00 0.00 0.00 76 1027.8
20260502060044 50 88 0.0 0.0 0.00 0.00 0.00 78 1027.9
20260502054545 49 88 0.0 0.0 0.00 0.00 0.00 79 1027.9
20260502053042 49 88 0.0 0.0 0.00 0.00 0.00 80 1028.0
20260502051548 49 88 0.0 0.0 0.00 0.00 0.00 79 1027.9
20260502050041 49 88 0.0 0.0 0.00 0.00 0.00 79 1027.8
20260502044539 49 88 0.0 0.0 0.00 0.00 0.00 79 1027.7
20260502043039 49 88 0.0 0.0 0.00 0.00 0.00 79 1027.7
20260502041559 50 88 0.0 0.0 0.00 0.00 0.00 78 1027.7
20260502040039 50 88 0.0 0.0 0.00 0.00 0.00 78 1027.5
20260502034533 50 88 0.0 0.0 0.00 0.00 0.00 78 1027.6
20260502033036 50 88 0.0 0.0 0.00 0.00 0.00 77 1027.6
20260502031531 50 88 0.0 0.0 0.00 0.00 0.00 77 1027.6
20260502030030 50 88 0.0 0.0 0.00 0.00 0.00 77 1027.5
20260502024528 51 88 0.0 0.0 0.00 0.00 0.00 76 1027.4
20260502023027 51 88 0.0 0.0 0.00 0.00 0.00 76 1027.4
20260502021526 51 88 0.0 0.0 0.00 0.00 0.00 75 1027.4
20260502020024 52 88 0.0 0.0 0.00 0.00 0.00 74 1027.3
20260502014527 52 88 0.0 0.0 0.00 0.00 0.00 74 1027.4
20260502013023 52 88 0.0 0.0 0.00 0.00 0.00 72 1027.3
20260502011522 52 88 0.0 0.0 0.00 0.00 0.00 75 1027.4
20260502010024 52 88 0.0 0.0 0.00 0.00 0.00 75 1027.4
20260502004520 52 88 0.0 0.0 0.00 0.00 0.00 77 1027.2
20260502003018 52 88 0.0 0.0 0.00 0.00 0.00 76 1027.4
20260502001518 52 88 0.0 0.0 0.00 0.00 0.00 76 1027.3
20260502000018 52 88 0.0 0.0 0.00 0.00 0.00 76 1027.4
20260501234515 52 88 0.0 0.0 0.00 0.00 0.00 76 1027.4
20260501233015 53 88 0.0 0.0 0.00 0.00 0.00 76 1027.4
20260501231515 53 88 0.0 0.0 0.00 0.00 0.00 76 1027.4
20260501230014 52 88 0.0 0.0 0.00 0.00 0.00 76 1027.3
20260501224514 53 88 0.0 0.0 0.00 0.00 0.00 77 1027.5
20260501223010 53 88 0.0 0.0 0.00 0.00 0.00 76 1027.6
20260501221509 53 88 0.0 0.0 0.00 0.00 0.00 76 1027.5
20260501220007 53 88 0.0 0.0 0.00 0.00 0.00 74 1027.4
20260501214507 54 88 0.0 0.0 0.00 0.00 0.00 74 1027.2
20260501213005 54 88 0.0 0.0 0.00 0.00 0.00 74 1027.1
20260501211507 55 88 0.0 0.0 0.00 0.00 0.00 73 1027.1
20260501210005 55 88 0.0 0.0 0.00 0.00 0.00 71 1027.0
20260501204505 56 88 0.0 0.0 0.00 0.00 0.00 70 1027.0
20260501203005 56 88 0.0 0.0 0.00 0.00 0.00 68 1026.9
20260501201504 57 88 0.0 0.0 0.00 0.00 0.00 67 1026.9
20260501200003 57 88 0.0 0.0 0.00 0.00 0.00 66 1026.7
20260501194503 58 88 0.0 0.0 0.00 0.00 0.00 64 1026.6
20260501193002 58 88 0.0 0.0 0.00 0.00 0.00 63 1026.4